Barcelona, Spain

7:05 AM CET en Diciembre 15, 2017 (GMT +0100)
El Prat

Tiempo Historia de LEBL - Diciembre, 2017

Change the Weather History Date:

Jueves, Diciembre 7, 2017

  Actual Average Record
Temperature  
Temperatura media 49 ° F -  
Temperatura máxima 59 ° F 55 ° F 66 ° F (2010)
Temperatura mínima 39 ° F 42 ° F 37 ° F (1997)
Degree Days  
Grados día de calefacción 16    
Moisture  
Punto de rocío 38 ° F    
Average Humidity 68    
Maximum Humidity 81    
Minimum Humidity 46    
Precipitación  
Precipitación 0.00 pul 0.06 pul - ()
Presión al nivel del mar  
Presión al nivel del mar 30.42 pul    
Viento  
Velocidad del viento 10 mph ()    
Velocidad máxima del viento 16 mph    
Max Gust Speed 25 mph    
Visibilidad 9.0 Millas    
Eventos      
Averages and records for this station are not official NWS values.
T = Trace of Precipitation, MM = Missing Value Source: Averaged Metar Reports

Daily Weather History Graph

Daily Weather History Graph

Search for Another Location

Airport or City:

Trip Planner

Search our weather history database for the weather conditions in past years. The results will help you decide how hot, cold, wet, or windy it might be!

Date:

Astronomía

Dec. 07, 2017 Salida Puesta
Hora real 8:03 AM CET 5:22 PM CET
Crepúsculo civil 7:32 AM CET 5:53 PM CET
Crepúsculo náutico 6:58 AM CET 6:28 PM CET
Crepúsculo astronómico 6:24 AM CET 7:01 PM CET
Luna 9:52 PM CET (12/7) 11:30 AM CET (12/7)
Horas de luz 10h 20m
Horas de luz
9h 18m
Gibosa menguante, 80% of the Moon is Illuminated
Dic 7
Gibosa menguante
Dic 10
Cuarto menguante
Dic 18
Nueva
Dic 26
Cuarto creciente
Ene 2
Luna llena

Hourly Weather History & Observations

Hora (CET) Temp. Vientos helados Punto de rocío Humedad Presión Visibilidad Wind Dir Velocidad del viento Velocidad de ráfagas Precip Eventos Condiciones
12:00 AM 44 ° F - 38 ° F 73% 30.51 pul 12 mi Norte 10.4 mph - -  
12:00 AM 42.8 ° F 37.0 ° F 37.4 ° F 81% 30.48 pul 6.2 mi NO 10.4 mph - N/A   Parcialmente nublado
12:30 AM 42.8 ° F 37.0 ° F 37.4 ° F 81% 30.48 pul 6.2 mi NO 10.4 mph - N/A   Parcialmente nublado
1:00 AM 43 ° F - 36 ° F 67% 30.49 pul 15 mi Norte 12.7 mph - -   Nubes dispersas
1:00 AM 42.8 ° F 36.6 ° F 35.6 ° F 76% 30.48 pul 6.2 mi NO 11.5 mph - N/A   Parcialmente nublado
1:30 AM 42.8 ° F 36.6 ° F 35.6 ° F 76% 30.48 pul 6.2 mi NO 11.5 mph - N/A   Parcialmente nublado
2:00 AM 42 ° F - 35 ° F 68% 30.48 pul 11 mi Norte 11.5 mph - -  
2:00 AM 41.0 ° F 34.3 ° F 33.8 ° F 76% 30.48 pul 6.2 mi NO 11.5 mph - N/A   Parcialmente nublado
3:00 AM 41 ° F - 34 ° F 68% 30.48 pul 12 mi Norte 12.7 mph - -  
3:00 AM 41.0 ° F 33.5 ° F 33.8 ° F 76% 30.45 pul 6.2 mi NO 13.8 mph - N/A   Parcialmente nublado
3:30 AM 41.0 ° F 33.1 ° F 35.6 ° F 81% 30.45 pul 6.2 mi NNO 15.0 mph - N/A   Parcialmente nublado
4:00 AM 41 ° F - 34 ° F 69% 30.47 pul 13 mi Norte 15.0 mph - -   Nubes dispersas
4:00 AM 41.0 ° F 33.5 ° F 33.8 ° F 76% 30.45 pul 6.2 mi NO 13.8 mph - N/A   Parcialmente nublado
4:30 AM 41.0 ° F 33.1 ° F 33.8 ° F 76% 30.45 pul 6.2 mi NO 15.0 mph - N/A   Parcialmente nublado
5:00 AM 41 ° F - 33 ° F 65% 30.46 pul 15 mi Norte 13.8 mph - -  
5:00 AM 41.0 ° F 33.9 ° F 32.0 ° F 70% 30.45 pul 6.2 mi NO 12.7 mph - N/A   Parcialmente nublado
5:30 AM 39.2 ° F 32.0 ° F 32.0 ° F 75% 30.45 pul 6.2 mi NO 11.5 mph - N/A   Parcialmente nublado
6:00 AM 40 ° F - 33 ° F 69% 30.45 pul 13 mi Norte 12.7 mph - -  
6:00 AM 39.2 ° F 32.0 ° F 33.8 ° F 81% 30.45 pul 6.2 mi NNO 11.5 mph - N/A   Parcialmente nublado
6:30 AM 39.2 ° F 31.6 ° F 32.0 ° F 75% 30.45 pul 6.2 mi NO 12.7 mph - N/A   Parcialmente nublado
7:00 AM 40 ° F - 33 ° F 69% 30.45 pul 13 mi Norte 12.7 mph - -   Nubes dispersas
7:00 AM 39.2 ° F 32.0 ° F 32.0 ° F 75% 30.42 pul 6.2 mi NO 11.5 mph - N/A   Parcialmente nublado
7:30 AM 39.2 ° F 32.0 ° F 32.0 ° F 75% 30.45 pul 6.2 mi NO 11.5 mph - N/A   Parcialmente nublado
8:00 AM 40 ° F - 33 ° F 67% 30.45 pul 14 mi Norte 12.7 mph - -  
8:00 AM 39.2 ° F 31.6 ° F 33.8 ° F 81% 30.45 pul 6.2 mi NO 12.7 mph - N/A   Parcialmente nublado
8:30 AM 39.2 ° F 31.6 ° F 32.0 ° F 75% 30.45 pul 6.2 mi NO 12.7 mph - N/A   Parcialmente nublado
9:00 AM 41 ° F - 33 ° F 64% 30.46 pul 17 mi Norte 12.7 mph - -  
9:00 AM 41.0 ° F 33.9 ° F 32.0 ° F 70% 30.45 pul 6.2 mi NO 12.7 mph 25.3 mph N/A   Parcialmente nublado
9:30 AM 42.8 ° F 35.8 ° F 33.8 ° F 70% 30.45 pul 6.2 mi NO 13.8 mph 25.3 mph N/A   Parcialmente nublado
10:00 AM 45 ° F - 34 ° F 56% 30.47 pul 14 mi Norte 11.5 mph - -   Nubes dispersas
10:00 AM 42.8 ° F 36.6 ° F 33.8 ° F 70% 30.45 pul 6.2 mi NNO 11.5 mph - N/A   Parcialmente nublado
10:30 AM 44.6 ° F 38.4 ° F 33.8 ° F 66% 30.45 pul 6.2 mi NNO 12.7 mph 25.3 mph N/A   Parcialmente nublado
11:00 AM 49 ° F - 36 ° F 49% 30.47 pul 14 mi Norte 9.2 mph - -  
11:00 AM 48.2 ° F - 35.6 ° F 62% 30.45 pul 6.2 mi NO 10.4 mph - N/A   Parcialmente nublado
11:30 AM 50.0 ° F - 37.4 ° F 62% 30.45 pul 6.2 mi NO 8.1 mph - N/A   Parcialmente nublado
12:00 PM 53 ° F - 38 ° F 46% 30.45 pul 13 mi Norte 8.1 mph - -  
12:00 PM 51.8 ° F - 37.4 ° F 58% 30.45 pul 6.2 mi NO 8.1 mph - N/A   Parcialmente nublado
12:30 PM 53.6 ° F - 37.4 ° F 54% 30.42 pul 6.2 mi NO 6.9 mph - N/A   Parcialmente nublado
1:00 PM 57 ° F - 46 ° F 57% 30.43 pul 12 mi Norte 4.6 mph - -   Despejado
1:00 PM 55.4 ° F - 41.0 ° F 58% 30.42 pul 6.2 mi Variable 2.3 mph - N/A   Parcialmente nublado
1:30 PM 59.0 ° F - 46.4 ° F 63% 30.39 pul 6.2 mi SO 16.1 mph - N/A   Parcialmente nublado
2:00 PM 59 ° F - 48 ° F 58% 30.40 pul 18 mi SO 15.0 mph - -  
2:00 PM 57.2 ° F - 48.2 ° F 72% 30.39 pul 6.2 mi SO 15.0 mph - N/A   Parcialmente nublado
2:30 PM 57.2 ° F - 46.4 ° F 67% 30.39 pul 6.2 mi SO 15.0 mph - N/A   Parcialmente nublado
3:00 PM 58 ° F - 47 ° F 58% 30.39 pul 17 mi OSO 12.7 mph - -  
3:00 PM 57.2 ° F - 46.4 ° F 67% 30.36 pul 6.2 mi SO 12.7 mph - N/A   Parcialmente nublado
3:30 PM 57.2 ° F - 46.4 ° F 67% 30.36 pul 6.2 mi SO 11.5 mph - N/A   Parcialmente nublado
4:00 PM 58 ° F - 47 ° F 57% 30.38 pul 14 mi OSO 12.7 mph - -  
4:00 PM 57.2 ° F - 46.4 ° F 67% 30.36 pul - OSO 11.5 mph - N/A   Despejado
4:30 PM 57.2 ° F - 46.4 ° F 67% 30.36 pul - OSO 12.7 mph - N/A   Despejado
5:00 PM 55.4 ° F - 46.4 ° F 72% 30.36 pul - OSO 9.2 mph - N/A   Despejado
5:30 PM 53.6 ° F - 44.6 ° F 72% 30.36 pul - OSO 8.1 mph - N/A   Despejado
6:00 PM 53.6 ° F - 44.6 ° F 72% 30.36 pul - Oeste 8.1 mph - N/A   Despejado
6:30 PM 53.6 ° F - 44.6 ° F 72% 30.36 pul - ONO 6.9 mph - N/A   Despejado
7:00 PM 54 ° F - 45 ° F 62% 30.37 pul 19 mi Oeste 8.1 mph - -  
7:00 PM 53.6 ° F - 44.6 ° F 72% 30.36 pul - ONO 3.5 mph - N/A   Despejado
7:30 PM 53.6 ° F - 44.6 ° F 72% 30.36 pul - ONO 3.5 mph - N/A   Despejado
8:00 PM 52 ° F - 42 ° F 60% 30.37 pul 12 mi NNO 3.5 mph - -  
8:00 PM 51.8 ° F - 41.0 ° F 67% 30.36 pul - NO 4.6 mph - N/A   Despejado
8:30 PM 51.8 ° F - 41.0 ° F 67% 30.36 pul 6.2 mi NO 4.6 mph - N/A   Parcialmente nublado
9:00 PM 51 ° F - 40 ° F 56% 30.37 pul 10 mi NO 4.6 mph - -  
9:00 PM 50.0 ° F - 39.2 ° F 66% 30.36 pul - NO 6.9 mph - N/A   Despejado
9:30 PM 50.0 ° F - 39.2 ° F 66% 30.36 pul - NO 6.9 mph - N/A   Despejado
10:00 PM 48 ° F - 38 ° F 60% 30.36 pul 14 mi Norte 8.1 mph - -   Nubes dispersas
10:00 PM 48.2 ° F - 37.4 ° F 66% 30.36 pul 6.2 mi ONO 5.8 mph - N/A   Parcialmente nublado
10:30 PM 48.2 ° F - 35.6 ° F 62% 30.36 pul 6.2 mi NO 4.6 mph - N/A   Parcialmente nublado
11:00 PM 47 ° F - 36 ° F 54% 30.35 pul 8 mi Norte 6.9 mph - -  
11:00 PM 46.4 ° F 42.4 ° F 35.6 ° F 66% 30.33 pul 6.2 mi NNO 8.1 mph - N/A   Parcialmente nublado
11:30 PM 44.6 ° F 40.7 ° F 35.6 ° F 71% 30.33 pul 6.2 mi NNO 6.9 mph - N/A   Parcialmente nublado